Location: Sungai Bunut
(2.6333°N, 113.7333°E)
Time: 20:19:20
(UTC+00:00)

Vanguard 3 - Pass Details

Date: 06 December 2023
Orbit: 508 x 3239 km, 33.4° (Epoch: 24 February)

Event Time Altitude Azimuth Distance (km) Brightness Sun altitude
Rises 06:43:05 0° 213° (SSW) 6,094 12.3 46.2°
Reaches altitude 10° 06:48:06 10° 200° (SSW) 5,464 12.1 45.2°
Maximum altitude 07:01:31 26° 150° (SSE) 4,873 11.4 42.4°
Drops below altitude 10° 07:16:12 10° 102° (ESE) 6,078 11.3 39.4°
Sets 07:22:05 0° 90° (E) 6,893 11.5 38.1°
